Kansas City International, MO

8:33 PM CDT on August 22, 2019 (GMT -0500)
Kansas City International

Weather History for KMCI - July, 2019

Change the Weather History Date:

Monday, July 22, 2019

  Actual Average Record
Temperature  
Mean Temperature 72 °F 79 °F  
Max Temperature 82 °F 89 °F 106 °F (1901)
Min Temperature 62 °F 69 °F 57 °F (1988)
Degree Days  
Heating Degree Days 0 0  
Month to date heating degree days 0 0  
Since 1 June heating degree days 0 9  
Since 1 July heating degree days 0 0  
Cooling Degree Days 7 14  
Month to date cooling degree days 318 293  
Year to date cooling degree days 688 675  
Since 1 June cooling degree days 590 559  
Growing Degree Days 23 (Base 50)    
Moisture  
Dew Point 63 °F    
Average Humidity 74    
Maximum Humidity 100    
Minimum Humidity 47    
Precipitation  
Precipitation 0.00 in 0.13 in 1.53 in (1898)
Month to date precipitation 2.16 3.34  
Year to date precipitation 34.06 22.40  
Snow  
Snow 0.00 in 0.00 in 0.00 in ()
Month to date snowfall 0.0 0.0  
Since 1 June snowfall 0.0 0.0  
Since 1 July snowfall 0.0 0.0  
Snow Depth 0.00 in    
Sea Level Pressure  
Sea Level Pressure 30.11 in    
Wind  
Wind Speed 12 mph (North)    
Max Wind Speed 21 mph    
Max Gust Speed 27 mph    
Visibility 10 miles    
Events      
T = Trace of Precipitation, MM = Missing Value Source: NWS Daily Summary

Daily Weather History Graph

Daily Weather History Graph

Search for Another Location

Airport or City:

Astronomy

Jul. 22, 2019 Rise Set
Actual Time 6:10 AM CDT 8:40 PM CDT
Civil Twilight 5:39 AM CDT 9:10 PM CDT
Nautical Twilight 5:00 AM CDT 9:48 PM CDT
Astronomical Twilight 4:18 AM CDT 10:31 PM CDT
Moon No Moon Rise 11:25 AM CDT (7/22)
Length of Visible Light 15h 31m
Length of Day
14h 30m
Waning Gibbous, 72% of the Moon is Illuminated
Jul 22
Waning Gibbous
Jul 24
Last Quarter
Jul 31
New
Aug 7
First Quarter
Aug 15
Full

Hourly Weather History & Observations

Time (CDT) Temp. Heat Index Dew Point Humidity Pressure Visibility Wind Dir Wind Speed Gust Speed Precip Events Conditions
12:34 AM 71.1 °F - 70.0 °F 96% 30.04 in 10.0 mi North 11.5 mph - N/A   Overcast
12:53 AM 70.0 °F - 69.1 °F 97% 30.02 in 10.0 mi North 11.5 mph - N/A   Overcast
1:34 AM 70.0 °F - 69.1 °F 97% 30.06 in 10.0 mi North 11.5 mph - N/A   Overcast
1:53 AM 70.0 °F - 69.1 °F 97% 30.02 in 10.0 mi North 11.5 mph - N/A   Overcast
2:53 AM 69.1 °F - 66.9 °F 93% 30.02 in 10.0 mi North 11.5 mph - N/A   Clear
3:53 AM 68.0 °F - 66.9 °F 96% 30.04 in 10.0 mi North 10.4 mph - N/A   Clear
4:53 AM 66.9 °F - 64.9 °F 93% 30.05 in 10.0 mi North 11.5 mph - N/A   Clear
5:53 AM 66.0 °F - 64.0 °F 93% 30.07 in 10.0 mi North 10.4 mph - N/A   Partly Cloudy
6:53 AM 66.0 °F - 63.0 °F 90% 30.09 in 10.0 mi North 11.5 mph - N/A   Partly Cloudy
8:53 AM 72.0 °F - 64.0 °F 76% 30.12 in 10.0 mi North 13.8 mph 19.6 mph N/A   Partly Cloudy
9:53 AM 75.0 °F - 64.9 °F 71% 30.13 in 10.0 mi North 11.5 mph - N/A   Partly Cloudy
10:29 AM 75.9 °F - 66.0 °F 71% 30.16 in 10.0 mi North 10.4 mph - N/A   Partly Cloudy
10:53 AM 77.0 °F - 64.9 °F 66% 30.14 in 10.0 mi NNE 13.8 mph - N/A   Partly Cloudy
11:53 AM 79.0 °F - 64.0 °F 60% 30.15 in 10.0 mi North 13.8 mph 26.5 mph N/A   Partly Cloudy
12:53 PM 80.1 °F 81.7 °F 64.0 °F 58% 30.14 in 10.0 mi North 13.8 mph - N/A   Scattered Clouds
1:53 PM 81.0 °F 81.6 °F 60.1 °F 49% 30.13 in 10.0 mi North 17.3 mph 23.0 mph N/A   Partly Cloudy
2:53 PM 81.0 °F 81.7 °F 61.0 °F 50% 30.14 in 10.0 mi North 17.3 mph - N/A   Scattered Clouds
3:53 PM 79.0 °F - 57.0 °F 47% 30.14 in 10.0 mi NNE 18.4 mph 24.2 mph N/A   Mostly Cloudy
4:53 PM 79.0 °F - 57.9 °F 48% 30.13 in 10.0 mi North 17.3 mph - N/A   Mostly Cloudy
5:53 PM 79.0 °F - 57.9 °F 48% 30.13 in 10.0 mi North 15.0 mph - N/A   Scattered Clouds
6:53 PM 77.0 °F - 55.9 °F 48% 30.13 in 10.0 mi North 16.1 mph 24.2 mph N/A   Scattered Clouds
7:53 PM 73.9 °F - 57.0 °F 55% 30.14 in 10.0 mi North 10.4 mph - N/A   Partly Cloudy
8:53 PM 66.9 °F - 57.9 °F 73% 30.15 in 10.0 mi North 8.1 mph - N/A   Partly Cloudy
9:53 PM 66.0 °F - 57.9 °F 75% 30.16 in 10.0 mi North 8.1 mph - N/A   Partly Cloudy
10:53 PM 64.9 °F - 57.9 °F 78% 30.18 in 10.0 mi North 5.8 mph - N/A   Partly Cloudy
11:53 PM 64.9 °F - 57.0 °F 75% 30.20 in 10.0 mi North 4.6 mph - N/A   Clear